Change the Weather History Date:

Thursday, December 20, 2012

  Actual Average Record
Temperature  
Mean Temperature 58 °F -  
Max Temperature 73 °F 65 °F 85 °F (2013)
Min Temperature 42 °F 45 °F 39 °F (2001)
Degree Days  
Heating Degree Days 8    
Growing Degree Days 8 (Base 50)    
Moisture  
Dew Point 25 °F    
Average Humidity 32    
Maximum Humidity 93    
Minimum Humidity 11    
Precipitation  
Precipitation 0.00 in - - ()
Sea Level Pressure  
Sea Level Pressure 30.22 in    
Wind  
Wind Speed 17 mph (NNW)    
Max Wind Speed 28 mph    
Max Gust Speed 39 mph    
Visibility 8 miles    
Events Rain    
Averages and records for this station are not official NWS values.
T = Trace of Precipitation, MM = Missing Value Source: NWS Daily Summary

Daily Weather History Graph

Daily Weather History Graph

Search for Another Location

Airport or City:

Trip Planner

Search our weather history database for the weather conditions in past years. The results will help you decide how hot, cold, wet, or windy it might be!

Date:

Astronomy

Dec. 20, 2012 Rise Set
Actual Time 7:17 AM CST 5:41 PM CST
Civil Twilight 6:51 AM CST 6:06 PM CST
Nautical Twilight 6:22 AM CST 6:36 PM CST
Astronomical Twilight 5:53 AM CST 7:04 PM CST
Moon 12:35 PM CST (12/20) 12:32 AM CST (12/20)
Length of Visible Light 11h 15m
Length of Day
10h 24m
First Quarter, 55% of the Moon is Illuminated
Dec 20
First Quarter
Dec 28
Full
Jan 4
Last Quarter
Jan 11
New
Jan 18
First Quarter

Hourly Weather History & Observations

Time (CST) Temp. Windchill Dew Point Humidity Pressure Visibility Wind Dir Wind Speed Gust Speed Precip Events Conditions
12:56 AM 73.0 °F - 70.0 °F 90% 29.79 in 6.0 mi SSW 12.7 mph - N/A   Overcast
1:56 AM 72.0 °F - 70.0 °F 93% 29.81 in 5.0 mi SW 10.4 mph 18.4 mph N/A   Overcast
2:15 AM 73.4 °F - 68.0 °F 83% 29.88 in 7.0 mi West 18.4 mph 25.3 mph 0.00 in Rain Light Rain
2:24 AM 73.4 °F - 66.2 °F 78% 29.89 in 8.0 mi WNW 21.9 mph 26.5 mph 0.00 in   Scattered Clouds
2:49 AM 71.6 °F - 55.4 °F 57% 29.91 in 7.0 mi NNW 23.0 mph 39.1 mph 0.00 in   Mostly Cloudy
2:56 AM 71.1 °F - 55.0 °F 57% 29.91 in 7.0 mi NNW 20.7 mph 32.2 mph 0.00 in   Mostly Cloudy
3:05 AM 71.6 °F - 51.8 °F 50% 29.92 in 6.0 mi NNW 23.0 mph 32.2 mph N/A   Haze
3:56 AM 68.0 °F - 32.0 °F 26% 29.96 in 6.0 mi NNW 17.3 mph 26.5 mph N/A   Haze
4:56 AM 64.9 °F - 23.0 °F 20% 30.04 in 5.0 mi North 18.4 mph 29.9 mph N/A   Haze
5:56 AM 63.0 °F - 17.1 °F 17% 30.11 in 6.0 mi NNW 19.6 mph 29.9 mph N/A   Haze
6:31 AM 60.8 °F - 19.4 °F 20% 30.17 in 5.0 mi North 21.9 mph 31.1 mph N/A   Haze
6:56 AM 60.1 °F - 19.0 °F 20% 30.18 in 6.0 mi NNW 19.6 mph 28.8 mph N/A   Haze
7:56 AM 57.9 °F - 18.0 °F 21% 30.25 in 9.0 mi North 24.2 mph 35.7 mph N/A   Mostly Cloudy
8:26 AM 57.2 °F - 15.8 °F 20% 30.30 in 3.0 mi North 26.5 mph 38.0 mph N/A   Haze
8:56 AM 55.9 °F - 18.0 °F 23% 30.33 in 4.0 mi NNW 27.6 mph 36.8 mph N/A   Haze
9:56 AM 55.9 °F - 18.0 °F 23% 30.37 in 10.0 mi NNW 24.2 mph 38.0 mph N/A   Mostly Cloudy
10:56 AM 57.9 °F - 19.0 °F 22% 30.39 in 10.0 mi NNW 19.6 mph 31.1 mph N/A   Mostly Cloudy
11:56 AM 60.1 °F - 14.0 °F 16% 30.40 in 10.0 mi NNW 24.2 mph 39.1 mph N/A   Mostly Cloudy
12:56 PM 61.0 °F - 12.0 °F 15% 30.37 in 10.0 mi NNW 25.3 mph 39.1 mph N/A   Mostly Cloudy
1:56 PM 62.1 °F - 10.9 °F 13% 30.35 in 10.0 mi NNW 24.2 mph 34.5 mph N/A   Mostly Cloudy
2:56 PM 61.0 °F - 6.3 °F 11% 30.35 in 10.0 mi NNW 24.2 mph 33.4 mph N/A   Mostly Cloudy
3:56 PM 60.1 °F - 7.0 °F 12% 30.35 in 10.0 mi NNW 20.7 mph 26.5 mph N/A   Mostly Cloudy
4:56 PM 59.0 °F - 5.0 °F 12% 30.36 in 10.0 mi NNW 17.3 mph 25.3 mph N/A   Mostly Cloudy
5:56 PM 55.9 °F - 5.0 °F 13% 30.38 in 10.0 mi North 11.5 mph - N/A   Mostly Cloudy
6:56 PM 53.1 °F - 7.0 °F 16% 30.41 in 10.0 mi North 6.9 mph - N/A   Mostly Cloudy
7:56 PM 50.0 °F - 9.0 °F 19% 30.43 in 10.0 mi NNW 4.6 mph - N/A   Mostly Cloudy
8:56 PM 48.9 °F - 12.0 °F 23% 30.45 in 10.0 mi WNW 4.6 mph - N/A   Mostly Cloudy
9:56 PM 44.1 °F 39.5 °F 15.1 °F 31% 30.47 in 10.0 mi WNW 8.1 mph - N/A   Mostly Cloudy
10:56 PM 42.1 °F 37.1 °F 12.9 °F 31% 30.48 in 10.0 mi NW 8.1 mph - N/A   Mostly Cloudy
11:56 PM 42.1 °F 37.7 °F 10.9 °F 28% 30.49 in 10.0 mi NW 6.9 mph - N/A   Clear